Overview Statistics Trail Chart Weather Telemetry Raw packets
 

This is the latest recevied weather packets stored in our database for station/object 9W2KHE-10. If no packets are shown the sender has not sent any weather packets the latest 10 day(s).

<< 17 18 19 20 21 22 23 >>
Time Temp. Humidity Pressure Rain* Wind** Luminosity Snow
1788151496 30° C 56% 1015.3 hPa - - - -
1788150596 29.44° C 56% 1015.4 hPa - - - -
1788149695 29.44° C 57% 1015.4 hPa - - - -
1788148798 29.44° C 55% 1015.6 hPa - - - -
1788147898 29.44° C 55% 1015.8 hPa - - - -
1788146998 29.44° C 58% 1015.8 hPa - - - -
1788146098 28.89° C 61% 1015.7 hPa - - - -
1788145198 28.89° C 61% 1015.6 hPa - - - -
1788144298 28.89° C 61% 1015.5 hPa - - - -
1788143398 28.89° C 62% 1015.3 hPa - - - -
1788142497 28.89° C 61% 1014.8 hPa - - - -
1788141597 28.89° C 63% 1014.8 hPa - - - -
1788140697 28.89° C 63% 1015 hPa - - - -
1788139797 28.89° C 63% 1014.9 hPa - - - -
1788138897 28.89° C 63% 1014.8 hPa - - - -
1788137997 28.33° C 63% 1014.6 hPa - - - -
1788137097 28.33° C 63% 1014.6 hPa - - - -
1788136197 28.89° C 63% 1014.4 hPa - - - -
1788135296 28.89° C 62% 1014.3 hPa - - - -
1788134396 28.89° C 61% 1014.2 hPa - - - -
1788133496 28.89° C 61% 1014.2 hPa - - - -
1788132596 28.89° C 61% 1014.1 hPa - - - -
1788131696 28.33° C 61% 1013.9 hPa - - - -
1788130795 28.33° C 62% 1013.8 hPa - - - -
1788129895 28.33° C 61% 1014.1 hPa - - - -

* Rain since midnight (hover to see other rain measurements)
** Current wind speed in m/s (hover to see current wind gust speed)